Regional Weather Roundup
Issued by NWS Green Bay, WI

Home | Current Version | Previous Version | Text Only | Print | Product List | Glossary On
Versions: 1 2 3 4 5 6 7 8 9 10 11 12 13 14 15 16 17 18 19 20 21 22 23 24 25 26 27 28 29 30 31 32 33 34 35 36 37 38 39 40 41 42 43 44 45 46 47 48 49 50
000
ASUS43 KGRB 100611
RWRGRB

NORTH-CENTRAL AND NORTHEAST WISCONSIN REGIONAL WEATHER ROUNDUP
NATIONAL WEATHER SERVICE GREEN BAY WI
1200 AM CST WED FEB 10 2016

WIZ005-009-010>012-018-019-100700-
NORTH CENTRAL WISCONSIN

CITY           SKY/WX    TMP DP  RH WIND       PRES   REMARKS
IRONWOOD       CLOUDY     7   3  85 NW10      29.96F WCI  -8
MANITOWISH WTR CLOUDY     5   0  79 N6        29.93F WCI  -6
ARBOR VITAE    CLOUDY     9   2  72 N13       29.92F WCI  -7
EAGLE RIVER    CLOUDY     6  -2  69 N9G17     29.90F WCI  -8
LAND O LAKES   LGT SNOW   6   0  78 N14G20    29.91S WCI -11
RHINELANDER    CLOUDY     7  -2  66 N10G20    29.91S WCI  -8
PHILLIPS       CLOUDY     5  -1  76 NW7       29.96F WCI  -7
ANTIGO         CLOUDY     8   0  70 N13       29.91R WCI  -8
TOMAHAWK       CLOUDY     7   1  76 NW6       29.94S WCI  -4
MERRILL        CLOUDY     8   1  72 NW7       29.96S WCI  -3
$$

WIZ013-073-100700-
NORTHEAST WISCONSIN

CITY           SKY/WX    TMP DP  RH WIND       PRES   REMARKS
IRON MOUNTAIN  CLOUDY     7   1  76 NW13      29.89R HAZE    WCI  -9
MARINETTE      PTCLDY    10   0  61 NW15G22   29.91R WCI  -6
OCONTO         CLEAR     10  -1  60 NW8       29.94R WCI  -2
$$

WIZ017-030-035>037-045-100700-
CENTRAL WISCONSIN

CITY           SKY/WX    TMP DP  RH WIND       PRES   REMARKS
MEDFORD        CLOUDY     6  -1  71 NW12      29.95F WCI -10
WAUSAU         CLOUDY    10   0  63 NW10      29.94S WCI  -4
MOSINEE        CLOUDY    10   1  67 NW12G20   29.96S WCI  -4
MARSHFIELD     CLOUDY     9  -3  58 N14       29.97S WCI  -7
WISC RAPIDS    CLOUDY    10  -2  58 N13       30.00S WCI  -5
STEVENS POINT  CLOUDY     9  -2  60 N12G20    29.97S WCI  -6
WAUPACA        CLOUDY    14   2  59 NW6       29.98R WCI   5
SHAWANO        CLOUDY    14   1  55 N8        29.96R WCI   3
CLINTONVILLE   CLOUDY    14   0  52 N9        29.95S WCI   2
WAUTOMA        CLOUDY    11   0  61 NW10      30.00R WCI  -2
$$

WIZ038-039-048-051-100700-
FOX VALLEY

CITY           SKY/WX    TMP DP  RH WIND       PRES   REMARKS
NWS GREEN BAY  CLEAR     11  -1  58 NW13      29.94R WCI  -4
APPLETON       PTCLDY    12   0  57 W13       29.92R WCI  -3
OSHKOSH        MOCLDY    11   0  61 NW12      29.94S WCI  -3
FOND DU LAC    PTCLDY    11   1  64 NW10      29.95S WCI  -3
$$

WIZ022-050-052-100700-
EAST CENTRAL WISCONSIN

CITY           SKY/WX    TMP DP  RH WIND       PRES   REMARKS
EPHRAIM        CLOUDY    11   1  63 NW15G25   29.86R WCI  -5
STURGEON BAY   CLOUDY    10   0  61 NW17      29.91S WCI  -7
MANITOWOC      CLOUDY    12   3  67 NW16G25   29.91S WCI  -5
SHEBOYGAN      PTCLDY    12   1  61 NW12      29.91R WCI  -2
$$

LMZ563-521-522-541>543-100700-
LAKESHORE

STATION/POSITION TIME  TEMP    WIND        PRES    VSBY  WAVE
                       AIR SEA DIR/SP/G                  HT/PER
                 (UTC) (F)     (DEG/KT/KT) (MB)    (MI)  (FT/S)
SHEBOYGAN LKSHOR 0600   13     310/ 17/ 20 1014.4R
KEWAUNEE LKSHORE 0500   13     350/ 12/ 18 1011.7F
ALGOMA MARINA    0541          340/ 15/ 22   N/A
CHAMBERS ISLAND  0500   13     310/ 20/ 28 1012.2R
MENOMINEE LKSHOR 0500   12     310/ 15     1011.6R
$$



USA.gov is the U.S. government's official web portal to all federal, state and local government web resources and services.